This is the latest recevied weather packets stored in our database for station/object OK1KZE-6. If no packets are shown the sender has not sent any weather packets the latest 10 day(s).
| Time | Temp. | Humidity | Pressure | Rain* | Wind** | Luminosity | Snow |
|---|---|---|---|---|---|---|---|
| 1777817707 | 24.44° C | 23% | 1016.2 hPa | - | - | - | - |
| 1777817408 | 24.44° C | 25% | 1016.4 hPa | - | - | - | - |
| 1777817107 | 25° C | 23% | 1016.3 hPa | - | - | - | - |
| 1777816808 | 24.44° C | 25% | 1016.4 hPa | - | - | - | - |
| 1777816507 | 25° C | 25% | 1016.7 hPa | - | - | - | - |
| 1777816208 | 24.44° C | 23% | 1016.7 hPa | - | - | - | - |
| 1777815908 | 24.44° C | 23% | 1016.8 hPa | - | - | - | - |
| 1777815607 | 24.44° C | 24% | 1016.8 hPa | - | - | - | - |
| 1777815307 | 23.89° C | 25% | 1017 hPa | - | - | - | - |
| 1777815008 | 23.89° C | 25% | 1017 hPa | - | - | - | - |
| 1777814707 | 25° C | 26% | 1017 hPa | - | - | - | - |
| 1777814408 | 23.89° C | 25% | 1017 hPa | - | - | - | - |
| 1777814107 | 23.89° C | 25% | 1017.2 hPa | - | - | - | - |
| 1777813808 | 24.44° C | 26% | 1017.1 hPa | - | - | - | - |
| 1777813507 | 24.44° C | 26% | 1017.2 hPa | - | - | - | - |
| 1777813208 | 23.89° C | 28% | 1017.3 hPa | - | - | - | - |
| 1777812907 | 23.89° C | 28% | 1017.3 hPa | - | - | - | - |
| 1777812607 | 24.44° C | 28% | 1017.3 hPa | - | - | - | - |
| 1777812307 | 24.44° C | 29% | 1017.2 hPa | - | - | - | - |
| 1777812007 | 23.89° C | 28% | 1017.6 hPa | - | - | - | - |
| 1777811707 | 23.89° C | 27% | 1017.7 hPa | - | - | - | - |
| 1777811408 | 23.89° C | 29% | 1017.6 hPa | - | - | - | - |
| 1777811106 | 24.44° C | 29% | 1017.7 hPa | - | - | - | - |
| 1777810808 | 23.89° C | 29% | 1017.6 hPa | - | - | - | - |
| 1777810508 | 23.33° C | 28% | 1017.5 hPa | - | - | - | - |
* Rain since midnight (hover to see other rain measurements)
** Current wind speed in m/s (hover to see current wind gust speed)